map of TRW home
TRW - Airport
Location
City:  Tarawa Island, Gilbert Islands, Kiribati
Name:Bonriki International Airport
ICAO:NGTA
IATA:TRW

Details
Type:Airport (Aerodrome, Airfield)
Use:International (customs port of entry)
Latitude:122'54"N (1.381636)
Longitude:17308'49"E (173.147036)
Datum:WGS 1984
Elevation:9 ft (3 m)
Variation:9.15E (WMM2015v2 magnetic declination)
-0.00 annual change
Runways:1
Longest:6598 × 135 ft (2011 × 41 m), paved

Time
Time Zone:UTC+12
Local Time:

Weather
METAR:NGTA 041300Z 04017KT 9999 -SHRA SCT017TCU SCT040 BKN300 28/23 Q1007
TAF:NGTA 041104Z 0412/0512 04011KT 9999 -SHRA SCT018 SCT038 OVC090 PROB40
TEMPO 0412/0420 3000 TSRA BKN015 FEW017CB PROB40
TEMPO 0500/0506 3000 TSRA BKN015 FEW017CB

Related Locations
Nearby:
Farthest:CPA: 12031 mi / 19362 km
Cape Palmas [A. Tubman], LR

Find:

   beyond  
but within

Other Information
Maps:
NOTAMs:
Links:
Sources:

  
  • flag of Kiribati
  

Sectional Chart

Flight Planning
at skyvector.com

Satellite Image

Google Maps Satellite view

 

Copyright © 2004-2019 Karl L. Swartz. All rights reserved.
The Great Circle Mapper name and logo are trademarks of the Great Circle Mapper.
All other trademarks mentioned herein belong to their respective owners.
Please see credits for attibutions and further copyright information.

  Follow gcmap on Facebook Follow gcmap on Twitter GCmap on LinkedIn

hCard Microformat

Geo Microformat